Starlink 4675

operational
NORAD ID: 53601 Int'l Des: 2022-104 Owner: SPXS Country: US Constellation: starlink
LEOCIRCULAR

About Starlink 4675

Description loading...

Live Position

Loading 3D Globe...

Upcoming Passes

Altitude History

Altitude vs Time

uPlot chart will show altitude changes over time

Two-Line Element Set

1 53601U 22104P 25310.79287838 -.00000426 00000-0 -86838-5 0 9999
2 53601 53.2167 75.6800 0001410 94.9143 265.2010 15.08836442177061
Epoch: Nov 6, 2025 • Age: 9 hours

Current Status

Altitude 552.1 km
Velocity 7.59 km/s
Sub-Earth Point -36.42°S, 179.07°W
Launch Date Aug 28, 2022
Age 3.1 years
Type internet

Technical Details

Classification Payload
Mass 300.00 kg
Dry Mass 290.00 kg
Total Mass 300.00 kg
Length 0.20 m
Diameter 2.80 m
Span 9.00 m
Shape Box + pan
Manufacturer SPXS
Bus Type Starlink
Phase Status In Orbit
Owner/State SPXS/US

Large Constellations

Loading constellations...